Location: Prairie State College
(41.5244°N, 87.6382°W)
Time: 05:08:09
(UTC-05:00)

MSX - Visible Passes

Search period start: 04 July 2015 00:00
Search period end: 14 July 2015 00:00
Orbit: 894 x 907 km, 98.7° (Epoch: 30 April)

Date Brightness Start Highest point End Pass type
(mag) Time Alt. Az. Time Alt. Az. Time Alt. Az.
04 Jul 5.6 20:53:53 10° SSW 20:59:01 32° W 21:04:04 10° NNW visible
05 Jul 5.7 20:56:48 10° SSW 21:01:50 30° W 21:06:48 10° NW visible
06 Jul 5.8 20:59:43 10° SSW 21:04:40 28° W 21:09:30 10° NW visible
07 Jul 5.9 21:02:39 10° SSW 21:07:30 27° W 21:12:13 10° NW visible
08 Jul 6.0 21:05:34 10° SSW 21:10:19 25° W 21:14:56 10° NW visible
09 Jul 6.1 21:08:31 10° SW 21:13:09 24° W 21:17:38 10° NW visible
10 Jul 6.1 21:11:28 10° SW 21:15:58 23° W 21:20:19 10° NW visible
11 Jul 6.2 21:14:26 10° SW 21:18:48 21° W 21:23:00 10° NW visible
12 Jul 6.3 21:17:25 10° SW 21:21:38 20° W 21:25:40 10° NW visible
13 Jul 6.3 21:20:24 10° SW 21:24:28 19° W 21:28:19 10° NW visible
